Wind_Speed
7 5 7 9 9 9 11 12 12 12 13 14 13 10 9 7 8 11 8 12 13 9 8 9 9 9 11 12 11 13 13 12 13 14 13 13 13 14 13 13 14 14 13 16 21 24 26 30 31 29 30 29 30 35 37 37 37 33 34 35 34 36 35 34 34 30 29 27 26 27 23 22 22 21 20 19 18 18 18 18 18 18 17 16 16 16
8 8 10 11 11 12 12 13 14 15 15 14 13 10 9 8 8 10 8 14 14 9 8 11 10 8 10 12 12 12 12 11 12 13 13 14 15 14 14 15 15 13 11 15 17 19 24 28 30 30 31 30 29 35 37 37 38 33 34 35 33 36 36 35 36 33 31 30 28 28 26 24 23 22 21 20 19 18 18 19 18 17 16 16 16 15
9 10 11 12 12 13 13 13 15 16 15 12 10 9 9 7 7 9 7 12 13 7 7 12 10 7 8 12 13 12 10 9 11 13 13 14 14 15 15 14 14 13 12 14 15 16 20 26 30 29 30 32 30 34 37 37 38 34 34 35 32 34 36 35 36 35 32 31 29 28 27 26 23 22 22 20 19 18 17 18 18 17 16 16 16 15
7 9 12 13 12 13 14 13 13 13 12 10 9 8 8 9 8 7 5 8 12 9 8 11 9 6 7 9 12 13 10 7 8 11 12 13 14 15 17 15 14 15 14 15 16 16 17 23 28 28 30 33 31 32 35 36 38 37 35 36 34 34 35 36 36 35 33 30 28 27 25 24 21 20 21 20 19 19 18 19 18 17 17 17 16 16
9 8 12 15 14 14 14 14 13 10 8 11 13 11 8 11 12 10 8 7 9 10 11 11 7 5 7 9 10 11 10 8 8 9 10 12 14 14 16 16 15 16 16 16 18 18 16 18 25 29 31 32 31 32 35 37 39 39 37 37 37 34 33 35 36 34 33 30 26 25 23 22 20 19 23 23 21 21 20 20 20 19 18 17 17 18
12 10 12 16 16 15 14 13 14 11 8 10 14 16 14 13 13 13 13 8 4 6 8 10 6 5 6 11 11 9 9 11 10 10 11 11 13 14 14 15 15 16 16 16 18 18 17 17 22 28 31 32 31 32 36 38 38 38 37 36 37 36 32 33 36 34 33 31 29 27 27 26 23 22 25 27 25 24 22 21 22 21 19 18 18 18
9 13 13 15 16 17 16 12 14 14 9 7 10 16 19 18 16 15 15 8 3 5 8 9 6 3 5 9 12 12 12 14 13 14 14 11 12 14 14 14 15 15 15 15 17 18 18 18 20 23 29 33 33 34 36 37 36 36 37 36 36 37 35 32 35 35 34 33 31 30 29 29 27 24 25 27 25 24 22 22 23 22 19 18 18 18
8 14 15 15 15 15 14 11 12 14 10 7 9 14 19 20 19 18 15 8 3 5 9 11 8 4 5 7 11 14 14 14 15 15 15 12 13 16 14 14 15 16 15 14 15 17 18 19 20 23 29 34 34 34 35 36 36 37 38 38 36 36 37 34 34 36 36 35 34 32 30 28 28 27 26 25 24 22 22 22 22 22 19 17 18 18
9 13 15 16 14 10 10 10 12 13 11 9 10 11 14 17 18 17 13 8 5 4 5 10 10 5 4 6 9 13 14 14 15 16 15 12 14 16 15 14 16 17 17 16 16 17 18 20 24 28 30 33 34 34 35 36 38 38 38 39 36 35 37 36 35 36 37 36 35 33 31 28 28 27 26 26 24 21 23 24 23 21 19 19 19 20
9 11 14 15 13 9 9 11 13 14 11 9 11 11 10 12 14 14 11 7 6 5 5 10 12 6 4 5 7 9 11 12 13 15 15 13 14 15 15 15 17 17 16 16 17 17 18 23 29 30 31 33 34 35 36 36 36 37 38 38 38 36 36 37 37 36 37 36 35 33 32 30 28 27 26 26 25 22 22 25 23 21 21 21 22 22
11 10 11 11 10 9 9 11 13 14 12 9 10 10 10 10 8 7 7 6 5 5 5 10 15 11 5 6 8 8 10 12 11 12 14 14 14 14 15 15 16 16 14 15 16 16 18 25 31 31 31 33 35 35 35 35 35 37 38 39 39 38 37 37 38 38 37 36 36 35 34 32 30 29 27 26 27 25 23 25 24 23 24 24 24 25
14 13 9 7 8 10 10 11 12 13 12 10 7 7 7 6 5 4 4 5 6 6 5 8 11 11 7 6 8 10 12 14 12 12 16 17 16 15 14 14 14 14 15 15 15 16 16 19 24 27 29 33 34 34 35 36 36 36 37 39 39 39 38 37 38 39 39 37 36 35 35 34 32 31 30 28 29 28 26 26 26 26 27 27 26 26
12 13 11 8 9 11 10 7 8 10 10 9 6 6 6 4 4 5 4 4 6 6 7 7 9 9 6 5 11 14 14 16 15 15 18 21 20 17 15 15 13 13 15 15 14 15 15 14 17 21 25 30 33 34 36 36 36 36 37 39 39 39 39 38 38 39 40 39 37 36 36 35 33 32 32 31 30 31 30 28 27 28 31 30 28 27
7 10 13 12 8 11 12 6 4 7 9 10 8 6 6 5 5 6 5 4 4 5 8 11 9 7 4 4 12 18 18 18 17 16 18 21 21 19 17 17 14 14 14 14 13 14 15 15 16 19 25 29 32 35 36 36 37 36 36 38 39 39 39 39 38 39 39 40 39 38 37 36 34 33 33 32 31 31 32 30 29 30 32 32 30 29
8 7 11 13 7 8 14 10 5 5 7 9 8 6 6 5 5 5 4 4 4 4 7 11 9 5 4 6 11 16 18 18 17 16 16 18 20 19 18 18 17 15 13 13 14 15 17 18 17 20 25 29 32 35 36 36 37 36 36 38 39 38 39 39 38 38 39 39 39 38 38 37 36 35 34 33 32 32 33 33 31 31 33 32 30 30
10 8 8 13 11 9 12 12 9 7 6 6 6 7 8 7 5 3 4 4 3 3 5 6 6 4 5 7 8 10 13 17 18 17 15 14 18 18 17 18 17 14 13 13 14 15 17 18 17 20 25 28 32 35 36 36 38 37 37 38 40 39 40 40 39 39 39 39 39 39 38 37 36 35 33 33 33 32 33 34 34 33 33 32 30 30
8 7 8 13 15 15 11 12 14 11 5 4 7 9 8 6 5 2 3 4 3 5 5 4 5 3 3 5 10 12 8 14 17 16 14 13 16 17 15 16 15 14 14 14 13 14 16 16 16 20 25 27 30 34 36 38 39 39 38 38 39 39 39 40 40 39 39 39 38 39 39 38 37 36 34 33 34 33 33 34 35 34 33 33 32 31
6 4 8 14 15 18 14 11 14 14 8 4 6 7 3 3 5 2 2 3 4 5 4 6 7 4 3 3 9 13 7 12 15 14 12 13 16 16 14 15 15 15 15 15 14 14 15 16 16 19 25 29 32 35 37 39 39 39 38 39 39 39 39 40 40 40 40 39 39 38 39 38 37 37 36 34 34 35 34 33 34 34 34 33 33 32
6 4 7 13 14 16 15 11 11 12 12 8 5 3 4 5 7 4 3 4 5 5 3 6 8 6 5 4 9 14 10 11 15 15 13 15 18 16 14 15 16 16 15 14 15 14 14 16 16 19 25 29 32 35 37 38 38 37 37 38 39 40 41 41 40 40 39 39 38 38 39 39 38 37 37 35 35 35 35 34 34 34 34 34 34 34
6 4 4 10 12 13 12 9 8 8 10 10 7 6 4 4 6 6 5 4 4 4 3 6 7 5 5 5 10 15 13 12 15 15 14 16 18 17 15 15 16 16 15 14 15 15 15 16 18 22 28 30 32 34 35 36 36 36 37 37 38 39 40 40 39 39 38 39 38 37 37 39 38 38 37 36 36 36 36 35 34 35 34 34 34 35
6 5 4 6 8 11 9 8 9 8 8 9 8 10 8 4 3 5 6 5 5 4 3 5 5 5 5 5 7 10 12 14 15 16 15 16 19 18 16 17 16 16 16 16 16 16 16 16 17 23 29 31 31 32 33 35 36 36 36 36 37 38 38 39 39 39 38 38 38 37 38 38 38 38 38 37 37 37 36 35 35 35 35 34 35 36
6 5 4 5 6 7 8 10 14 14 11 10 9 11 10 6 4 4 5 7 7 6 6 5 4 6 6 5 7 8 10 12 13 13 12 14 19 17 15 18 20 18 18 18 18 17 16 15 15 20 26 28 29 31 34 36 36 36 36 36 37 37 38 39 40 40 39 38 38 39 39 39 38 38 38 38 38 38 38 36 35 35 35 35 36 37
8 4 5 7 7 7 8 11 18 19 16 12 11 11 9 7 6 5 5 5 6 5 5 5 5 5 6 6 7 9 9 10 13 13 11 12 16 15 14 17 19 20 20 19 18 15 14 14 14 16 21 24 27 32 35 36 36 37 37 37 36 36 37 39 39 39 39 38 39 39 39 38 38 39 39 38 38 39 38 37 36 35 36 37 37 37
9 5 5 6 6 8 10 8 15 21 17 12 11 11 10 8 8 7 5 4 4 5 5 5 5 5 5 6 5 6 6 6 11 16 15 14 13 13 14 16 16 17 17 15 14 12 12 12 13 14 16 19 23 29 33 35 36 37 38 38 38 37 38 38 38 38 38 38 39 39 38 38 39 39 39 39 39 39 39 37 36 36 37 38 38 39
9 7 6 5 5 6 8 7 8 16 15 9 8 11 12 13 11 9 7 4 4 6 8 6 5 5 6 7 11 11 7 3 4 10 13 12 11 11 12 14 16 16 14 14 14 14 13 13 13 14 14 16 21 25 29 33 34 36 37 38 37 37 37 38 37 37 38 38 38 38 38 39 39 40 40 40 40 39 39 37 37 38 38 38 38 39
9 8 8 7 8 8 9 7 4 8 10 8 9 12 14 16 15 10 6 6 6 7 8 7 5 6 6 11 18 19 12 8 5 5 9 9 9 10 8 12 16 15 13 15 15 14 14 14 15 15 14 15 21 24 26 29 31 33 35 37 37 36 37 37 37 37 38 38 38 38 39 40 39 41 42 41 40 39 39 38 37 38 39 39 38 38
7 8 11 13 11 8 8 7 4 5 7 10 13 15 14 15 15 11 6 7 6 4 5 6 6 6 6 10 17 19 16 12 7 6 9 8 8 9 7 10 15 14 12 15 15 14 15 15 15 16 14 15 20 24 26 28 30 32 33 35 36 36 36 37 37 37 37 38 38 38 40 41 41 42 42 41 40 39 39 39 38 38 39 39 38 37
5 7 13 18 16 12 9 8 9 9 9 12 16 17 16 15 14 11 9 9 6 4 7 8 5 4 7 7 10 13 13 10 7 7 9 8 7 8 8 10 15 16 15 16 15 15 15 14 14 15 13 14 18 22 25 28 31 32 33 35 35 36 36 37 37 37 37 38 38 39 41 42 43 43 41 41 41 39 39 39 39 38 39 39 38 38
3 5 11 16 17 17 14 12 12 12 11 11 15 18 17 17 17 15 13 10 8 6 9 9 6 6 7 6 6 8 7 7 6 6 7 7 9 9 8 10 13 16 16 16 15 14 13 13 13 13 13 13 16 19 22 25 29 31 32 34 36 37 37 37 37 38 37 38 39 40 41 42 42 41 40 39 40 40 39 39 39 38 38 38 39 38
4 3 6 10 13 17 18 17 17 15 14 12 13 17 19 18 19 18 14 11 9 9 9 9 9 10 7 6 9 8 7 6 4 2 2 4 7 11 11 10 11 13 15 15 14 14 14 14 14 13 14 13 14 17 21 24 28 31 32 34 36 37 38 38 38 38 38 38 39 40 41 42 41 40 39 39 40 41 40 39 39 38 37 38 39 38
6 5 5 6 7 10 17 19 19 19 16 14 12 12 16 18 18 18 16 13 10 9 8 9 10 9 6 6 10 11 6 4 2 4 2 1 4 10 12 12 11 11 11 12 12 11 11 12 12 12 13 14 15 19 22 25 28 31 32 33 36 37 38 39 39 39 39 39 40 40 41 41 40 39 39 40 40 40 40 38 37 37 36 36 38 38
5 5 4 4 2 3 7 13 20 20 17 17 18 14 13 14 13 13 15 14 12 10 9 8 8 7 6 6 8 10 6 3 3 6 6 3 3 8 10 12 13 13 12 12 13 14 14 14 14 14 15 15 17 22 25 26 28 29 31 34 37 38 38 38 39 39 39 39 39 40 41 41 40 39 39 39 39 39 39 37 35 35 35 35 36 37
5 4 5 4 1 2 5 8 15 18 15 15 16 13 10 8 6 6 9 14 15 14 9 7 7 6 6 7 7 9 9 8 7 6 7 7 7 7 9 11 12 15 16 16 16 17 17 16 15 16 17 17 19 25 30 30 29 30 34 37 38 38 37 37 38 39 39 39 40 40 41 41 40 39 39 39 38 37 36 35 34 34 35 34 34 35
8 3 6 4 3 3 6 8 7 9 11 10 9 9 11 12 8 7 6 7 9 9 8 7 7 6 5 6 7 7 9 11 9 6 6 8 8 8 9 10 10 11 14 16 17 17 15 14 13 15 18 22 27 33 35 35 35 36 38 37 36 38 38 37 37 38 39 40 40 41 41 40 39 38 38 37 36 34 34 35 34 33 33 32 31 33
10 3 5 4 3 3 4 4 5 6 7 3 4 9 10 11 11 11 11 9 7 7 4 3 4 4 4 4 2 1 3 8 7 5 5 7 8 8 8 8 7 8 9 12 14 15 15 15 14 13 16 23 30 32 32 33 35 35 35 35 35 38 39 38 36 38 39 40 40 40 40 39 38 36 35 35 34 33 32 33 33 31 30 29 29 29
8 4 3 4 4 2 2 4 5 5 4 5 1 2 1 3 6 8 8 9 7 3 3 4 3 2 5 7 7 7 5 4 3 3 5 5 7 7 7 7 7 6 8 11 13 15 15 16 17 17 20 25 28 28 29 32 34 32 32 34 35 37 38 36 35 37 38 39 39 39 39 39 36 34 34 33 33 32 32 32 31 29 29 27 25 25
5 3 1 3 4 4 4 4 5 5 5 5 3 1 2 2 2 4 3 3 7 7 7 6 6 6 6 6 7 7 7 7 6 6 6 5 4 6 6 7 7 6 6 9 12 13 14 16 19 22 25 27 26 27 29 32 33 31 31 32 33 33 35 33 33 35 38 38 39 39 38 38 36 34 33 33 32 31 30 30 29 28 28 26 24 22
4 2 2 4 5 5 5 3 4 7 6 5 3 1 2 6 8 7 6 4 5 6 5 7 8 8 7 7 7 6 7 7 4 6 9 11 9 8 7 7 8 8 7 8 11 12 14 18 20 22 24 25 26 30 33 33 33 31 29 30 31 31 31 31 31 35 37 37 38 38 38 37 36 35 33 33 32 30 28 28 28 28 28 27 24 22
8 3 1 4 4 6 6 6 6 7 5 4 4 2 1 4 8 8 5 2 3 5 5 8 8 9 8 7 7 6 7 5 3 5 8 12 12 10 8 10 10 9 9 8 10 13 16 23 27 27 26 24 26 31 34 33 34 32 29 30 32 31 29 30 32 34 37 38 38 37 37 37 36 35 34 32 31 29 28 28 28 28 28 27 25 23
6 1 1 2 2 5 4 3 4 4 2 4 5 5 4 3 7 8 3 4 3 4 6 9 9 9 8 7 7 7 6 3 3 6 8 11 11 9 7 7 9 9 9 8 9 14 21 26 24 21 22 24 29 34 35 35 34 30 29 32 31 30 30 33 34 35 36 36 36 36 37 37 36 35 34 33 31 30 30 29 28 28 27 26 25 23
4 3 1 2 2 3 4 2 3 3 2 2 2 3 5 5 6 4 5 5 1 5 7 9 9 8 7 7 6 5 4 4 5 6 9 12 12 12 10 7 5 4 4 6 8 8 13 21 23 22 25 30 34 36 36 36 32 28 29 30 28 29 35 36 34 34 35 35 35 36 36 36 36 36 35 34 33 32 30 29 28 27 27 25 24 23
7 5 2 3 3 2 4 1 1 3 3 0 2 2 2 4 3 3 4 3 4 7 8 9 9 7 7 7 6 5 4 7 9 9 11 13 13 13 14 12 9 6 3 4 8 11 6 9 18 23 28 33 36 37 37 35 31 27 27 26 26 31 35 34 33 34 34 35 35 35 35 35 36 36 35 34 35 33 31 29 28 28 27 26 25 25
4 4 3 4 4 0 2 2 2 1 5 2 3 2 3 1 5 4 3 4 5 7 8 8 9 8 6 7 7 7 7 8 9 9 9 10 11 12 14 14 15 14 11 8 9 11 11 6 6 15 26 32 33 35 37 34 28 25 24 23 27 31 32 32 34 35 34 34 35 34 34 35 36 35 34 35 35 34 31 30 30 29 28 27 26 26
3 3 3 4 4 3 1 1 1 3 4 2 3 3 2 2 3 3 5 6 6 6 7 8 8 8 8 8 9 8 9 9 8 8 8 9 10 11 12 14 15 15 13 12 13 18 18 12 11 10 12 24 26 26 29 28 23 20 20 21 26 30 31 32 34 34 32 33 33 32 33 34 34 33 33 34 34 33 32 31 30 29 27 26 26 25
2 3 1 3 2 1 2 4 10 12 4 5 6 5 6 6 6 7 8 8 7 7 7 7 8 9 9 9 9 9 9 8 8 8 8 8 9 10 10 11 12 12 12 11 13 19 21 18 21 27 20 8 19 22 23 24 22 18 18 23 29 31 32 33 33 32 31 31 31 32 32 32 32 32 32 33 34 33 31 30 29 27 25 25 23 21
3 4 0 3 2 4 3 4 11 15 5 8 8 6 8 9 8 9 10 10 9 9 9 8 8 10 10 9 9 9 7 7 7 8 8 8 9 10 10 11 12 12 13 13 13 14 17 19 21 23 25 16 3 14 16 20 23 21 21 27 32 33 33 34 32 31 30 30 31 32 33 31 30 31 30 30 31 31 30 29 27 25 23 22 20 18
5 7 4 3 4 5 4 5 10 14 9 10 10 10 12 13 12 12 11 10 11 11 11 11 10 11 11 11 11 10 9 9 9 8 8 9 10 10 11 12 12 11 11 13 15 13 10 11 13 13 14 20 17 12 12 9 9 16 23 29 32 34 35 34 33 31 31 31 31 31 32 31 30 30 29 29 29 29 28 27 25 24 22 20 19 19
5 8 6 4 3 1 2 7 12 11 9 13 11 10 11 12 14 15 12 11 13 13 13 12 11 11 11 11 10 10 12 13 12 10 9 9 8 9 9 10 11 11 12 15 19 18 9 7 9 10 8 11 17 15 18 18 11 7 17 26 33 37 37 35 34 33 31 32 31 30 31 32 31 30 29 28 28 28 26 25 25 24 22 21 21 21
3 5 4 4 4 3 4 8 12 9 8 14 12 10 10 10 13 15 13 13 15 14 14 13 12 12 12 11 10 11 13 13 12 12 11 10 9 9 8 8 9 10 12 15 19 19 14 7 8 9 10 10 7 8 17 23 17 11 12 17 27 35 35 33 34 33 32 31 30 30 31 31 31 31 31 30 29 27 25 24 25 24 23 23 22 21
0 2 2 2 4 4 3 6 8 6 5 7 9 9 9 9 13 14 13 13 14 12 11 12 12 12 13 12 11 12 12 11 11 12 12 12 12 10 8 7 7 8 11 15 17 18 17 12 8 7 8 12 12 9 12 21 24 20 16 15 20 29 32 30 29 29 30 30 29 29 30 30 30 31 32 32 30 28 24 22 23 23 23 22 21 20
1 1 0 2 5 3 3 3 5 4 3 5 8 9 8 8 12 14 13 13 12 10 10 11 11 11 12 11 11 11 11 11 11 12 13 13 13 13 11 10 9 8 10 13 13 13 15 15 13 10 8 8 11 11 12 18 25 26 21 18 21 27 30 28 26 25 25 26 26 27 28 28 29 30 30 30 30 29 26 23 19 18 18 17 16 16
Wind_Direction
198 218 222 217 222 219 212 214 221 228 230 239 249 247 238 227 232 242 207 165 160 154 174 170 176 187 165 172 172 160 169 167 163 167 168 165 163 171 173 170 176 181 183 186 189 187 179 178 180 181 181 177 174 176 178 180 184 187 184 181 181 183 185 185 186 188 187 186 187 192 195 192 193 195 197 202 203 204 211 212 213 212 216 220 216 215
198 219 226 219 220 226 223 215 217 228 232 237 249 258 255 245 246 246 198 162 165 167 177 170 170 185 166 164 168 164 170 170 167 171 172 169 167 172 175 173 176 180 177 178 188 191 181 177 179 181 182 182 176 175 178 179 181 184 183 183 181 181 183 185 186 188 189 191 191 192 196 195 196 197 197 202 202 204 211 211 210 212 214 214 213 212
206 221 223 221 218 224 231 224 216 223 232 237 244 254 261 262 270 264 214 164 168 171 173 171 168 184 173 160 163 167 174 174 171 174 174 172 169 171 177 175 173 175 176 175 183 192 185 177 178 180 181 185 183 179 180 180 181 182 183 184 183 182 184 185 187 189 189 192 194 194 195 195 196 199 199 202 202 203 210 210 209 212 212 211 211 207
214 213 216 225 224 220 228 232 224 222 227 237 242 243 252 256 267 272 236 179 177 171 163 167 167 183 178 162 166 172 173 169 176 179 176 174 174 174 178 176 172 173 176 178 180 189 190 180 178 179 180 184 184 180 181 181 182 184 185 187 185 184 185 185 187 190 190 191 194 196 194 192 195 200 200 201 203 203 208 210 209 211 209 208 207 203
236 210 201 219 230 224 223 227 228 225 220 227 235 241 247 247 251 259 252 223 184 168 161 156 162 200 183 164 169 172 169 172 183 192 187 178 174 174 177 178 175 174 176 179 180 185 190 185 181 180 181 183 182 180 181 182 183 185 186 188 188 186 186 186 187 189 190 188 190 192 191 191 195 197 195 197 201 201 204 206 205 206 206 203 203 204
237 228 203 208 219 225 224 222 221 222 227 225 226 234 248 252 251 254 255 250 176 170 173 150 156 237 194 165 169 169 171 179 183 197 207 187 172 173 176 180 180 178 178 178 180 184 188 188 184 181 181 182 183 183 183 184 184 186 187 187 189 189 188 187 188 188 189 188 188 188 186 190 195 192 188 194 199 198 200 203 201 201 202 201 202 206
219 226 225 214 209 214 222 226 220 217 226 232 217 220 237 252 258 260 260 254 172 176 190 163 153 228 206 176 176 176 180 184 181 193 208 197 176 176 177 181 183 180 179 179 181 184 187 188 185 183 183 184 186 185 183 183 184 185 187 187 189 191 191 189 188 190 190 189 191 191 188 190 194 192 188 194 198 197 199 200 198 196 197 202 203 202
203 212 227 228 216 209 215 223 219 215 222 235 222 210 220 236 251 261 264 259 215 172 187 187 167 158 205 200 184 179 182 189 186 191 203 199 181 180 179 180 182 181 180 180 182 184 187 189 187 186 187 187 188 185 183 183 184 186 188 188 190 192 194 192 190 191 192 191 191 193 193 192 195 196 193 193 195 199 201 196 192 192 194 200 202 197
212 213 217 225 228 217 208 212 213 217 225 231 233 224 218 223 235 249 260 264 244 209 195 194 173 155 219 217 187 178 181 191 192 193 200 193 179 181 183 181 180 182 182 181 183 184 187 189 189 188 187 188 188 186 185 185 186 187 188 189 191 192 194 195 193 192 193 194 193 193 194 194 196 198 197 196 195 198 198 193 190 192 194 194 194 191
223 223 214 217 228 228 210 204 207 217 226 227 234 243 242 232 229 233 243 258 255 242 226 196 179 176 227 208 184 182 186 191 191 193 198 193 183 184 188 185 181 181 184 184 185 185 185 189 190 188 185 186 187 187 187 187 186 187 187 189 191 193 195 195 196 194 193 194 194 193 194 195 196 197 197 197 197 197 192 189 191 195 197 192 187 186
240 241 226 218 221 225 217 204 204 216 225 223 227 242 255 252 242 234 229 235 252 251 226 199 188 187 215 208 185 184 189 187 183 187 191 191 190 190 189 189 184 181 182 184 188 188 185 186 187 185 183 185 186 186 186 186 186 187 187 189 191 193 195 195 196 196 195 195 195 194 194 195 196 195 195 195 197 198 192 189 193 197 198 190 184 188
238 244 244 235 221 219 219 209 202 209 221 223 216 223 242 258 267 267 246 214 231 243 222 212 208 202 214 217 194 187 186 184 181 182 185 187 190 191 189 188 184 181 182 184 186 188 184 181 182 183 183 184 185 185 185 185 186 187 188 189 190 193 194 194 196 197 197 197 196 196 196 195 196 195 194 194 195 197 194 194 197 195 191 186 184 188
228 235 240 246 237 226 221 208 198 205 215 221 217 208 212 230 245 246 249 216 223 239 219 218 229 222 227 208 189 190 187 185 187 185 186 189 189 190 191 191 186 180 182 184 182 183 182 178 180 183 182 182 184 185 185 185 186 187 189 189 190 192 194 194 195 196 197 198 197 197 197 197 197 195 194 194 194 194 194 195 194 188 184 183 183 185
228 230 230 237 237 219 218 207 188 201 204 210 212 201 189 192 213 227 243 236 223 237 222 219 226 225 244 218 186 192 196 191 189 188 188 190 191 192 192 192 189 184 184 183 180 180 182 182 182 184 182 182 185 186 184 185 186 187 188 189 190 192 193 194 195 196 197 198 199 198 198 198 197 196 195 194 194 194 195 196 193 186 183 184 184 185
227 229 214 223 223 198 206 208 207 199 197 208 206 200 198 191 205 214 218 228 226 239 231 223 219 192 207 216 191 195 201 194 189 190 191 188 188 191 190 189 188 186 184 181 180 181 183 185 184 183 183 183 184 185 184 185 186 187 188 189 190 191 192 194 195 196 198 199 200 199 199 198 197 197 196 196 196 196 197 197 194 189 186 187 187 188
225 236 206 212 220 212 199 195 210 222 211 210 197 207 215 195 193 210 213 224 224 238 246 230 218 181 189 220 225 220 203 190 189 191 192 187 182 182 182 183 186 185 182 178 178 182 185 187 185 183 183 183 183 184 185 186 186 187 188 189 190 191 192 194 195 197 198 199 200 200 200 199 198 197 196 197 197 198 199 198 196 194 192 192 191 190
216 230 209 205 215 222 209 183 197 215 211 190 201 217 216 190 192 213 236 253 239 230 238 231 234 217 191 230 252 252 207 178 188 189 187 180 170 172 175 178 182 182 181 179 178 181 184 186 187 185 183 181 182 184 186 188 188 187 187 187 189 190 192 194 196 197 199 199 200 200 200 200 198 197 196 197 198 199 201 200 198 197 197 197 196 193
213 231 216 206 208 216 218 199 199 211 208 186 204 207 193 224 233 205 215 243 236 236 234 231 239 224 192 215 238 243 211 167 182 184 176 168 160 165 174 177 179 179 180 183 181 181 183 186 188 186 186 184 184 186 188 188 188 188 188 188 188 189 191 194 196 198 199 199 200 200 200 200 198 197 197 197 198 200 200 200 198 198 198 198 198 196
212 245 228 215 208 202 210 214 206 209 209 212 231 189 160 222 227 207 217 211 210 234 242 241 244 218 202 201 206 223 213 167 176 181 173 168 164 167 173 178 180 178 181 186 187 188 187 188 188 186 187 187 186 188 188 188 187 189 190 190 190 191 193 195 196 198 200 200 200 200 200 200 198 197 197 197 198 200 201 200 199 198 198 197 198 197
210 236 241 229 212 187 191 211 205 196 198 211 242 243 223 220 197 193 215 206 188 218 228 236 247 235 222 204 191 207 208 183 180 182 179 173 171 172 172 177 180 178 183 189 190 193 193 192 190 187 187 187 187 186 186 185 187 189 190 190 191 192 194 195 197 198 199 200 200 201 200 200 198 197 197 198 199 200 202 202 200 199 198 197 198 198
213 221 246 258 228 193 189 198 190 178 183 195 215 230 232 233 203 189 201 207 190 191 222 233 241 246 245 224 203 205 206 202 192 182 181 178 176 178 176 177 181 182 186 190 191 194 194 194 192 189 189 187 183 182 183 185 187 189 190 191 191 192 192 194 197 198 199 200 200 200 200 200 198 197 197 199 201 202 203 202 201 201 199 197 198 198
210 208 230 265 251 219 203 186 180 180 186 189 199 221 226 218 219 214 213 215 200 195 216 220 233 254 253 238 234 228 211 205 198 186 181 178 178 181 181 180 181 184 188 190 192 192 189 189 189 188 188 184 178 178 182 185 187 188 190 192 192 192 193 195 197 198 199 199 200 201 201 200 199 198 198 199 201 204 205 204 203 201 200 199 199 200
200 196 215 244 255 252 231 190 178 181 189 192 195 212 222 215 208 215 221 210 203 212 219 219 238 253 251 240 238 242 227 198 186 182 177 178 181 179 181 184 183 185 189 190 190 187 183 184 184 183 186 184 180 180 182 183 186 188 190 191 192 193 195 196 197 198 199 199 201 202 201 200 200 199 199 199 201 204 206 205 204 202 202 202 202 202
189 198 202 229 262 277 271 226 183 180 186 197 199 198 210 221 215 219 228 194 189 211 207 224 245 229 235 255 256 259 252 203 182 182 179 181 184 176 174 182 185 185 187 185 181 179 180 180 178 179 184 188 187 184 181 182 185 187 188 189 192 194 195 196 197 198 199 200 202 202 201 201 201 200 200 201 202 205 206 206 205 204 204 204 204 204
185 196 178 191 232 253 271 265 200 185 186 195 199 190 199 215 218 225 236 218 214 223 206 204 236 224 212 241 263 277 290 289 192 180 175 177 187 189 175 172 180 183 179 177 175 176 176 175 179 184 186 189 189 186 183 183 184 185 187 189 191 193 195 196 197 198 199 201 202 201 201 202 201 201 201 202 203 205 205 205 205 206 206 206 205 205
185 190 178 189 206 210 226 239 204 185 189 192 193 191 195 207 214 218 227 227 228 233 223 205 220 242 206 205 238 259 270 276 270 196 176 170 179 195 179 159 173 180 176 175 173 172 176 178 183 187 186 186 187 185 184 183 183 185 187 189 190 192 194 195 196 197 199 201 201 201 202 202 202 202 203 203 204 205 205 205 205 206 207 207 206 206
187 186 190 197 201 206 219 228 214 189 193 190 189 195 198 204 212 208 205 227 218 205 241 230 199 231 232 202 220 241 247 248 250 204 184 168 164 181 170 158 170 174 172 174 170 170 177 181 184 183 181 183 184 184 183 182 183 184 186 188 190 191 193 195 196 197 199 200 201 202 202 203 203 204 204 204 204 205 205 205 206 207 208 208 207 207
204 189 193 199 201 207 216 231 232 226 218 197 185 192 201 206 215 216 212 220 204 185 250 250 191 207 255 235 218 232 245 242 219 197 189 163 149 165 164 165 172 170 171 174 172 173 176 179 182 182 178 179 181 182 183 183 184 185 185 187 188 189 192 194 195 196 198 199 200 202 203 204 204 205 204 204 204 205 206 207 207 207 208 208 208 209
187 189 191 196 203 211 220 235 238 238 243 222 192 188 196 203 211 221 227 215 189 200 237 236 207 214 244 255 232 221 231 233 209 204 209 177 146 142 148 161 168 168 170 174 172 172 177 180 182 185 183 180 180 181 181 183 184 184 185 186 187 188 191 192 194 196 197 199 200 202 203 204 205 205 204 204 204 205 207 208 207 207 208 208 208 210
143 185 192 195 203 208 216 232 243 247 252 247 214 193 194 203 207 214 230 230 213 221 231 219 216 223 220 239 258 243 207 196 176 141 232 221 150 138 147 155 163 169 172 177 179 176 179 182 182 186 186 183 183 184 183 183 184 184 185 186 187 189 191 191 193 195 196 198 200 201 202 204 204 204 203 203 204 205 207 207 207 207 207 208 209 209
168 197 206 205 214 207 206 217 234 246 252 256 251 219 200 201 203 204 215 228 235 239 234 218 223 241 229 213 248 256 213 165 138 117 131 272 121 133 150 156 160 169 170 175 182 180 179 183 184 187 187 185 187 187 186 186 186 185 185 186 188 190 190 191 192 194 196 198 200 200 201 203 203 203 203 203 203 204 205 206 206 206 206 207 208 208
192 186 178 178 230 233 209 213 222 232 246 254 255 248 222 205 203 204 201 205 218 228 234 228 223 247 251 212 233 256 239 201 201 165 160 203 170 148 158 159 159 167 172 175 182 183 183 186 186 185 187 190 189 188 188 187 185 185 186 187 189 190 190 192 193 194 195 197 198 199 199 201 202 202 202 203 203 204 204 204 204 204 205 206 205 205
240 171 136 129 145 259 278 254 224 215 227 243 244 247 250 238 234 233 207 197 203 210 217 222 215 217 217 198 211 237 243 249 245 197 177 199 202 185 183 181 177 177 177 178 182 186 186 186 186 186 187 189 188 189 190 187 184 187 190 190 190 189 190 193 193 193 194 196 196 197 198 200 200 201 202 202 202 203 202 202 203 203 204 205 203 201
276 176 130 125 127 186 254 281 268 217 218 234 227 224 244 252 254 264 254 218 208 213 207 199 207 210 190 190 208 219 229 239 238 210 181 180 189 198 194 193 196 193 188 185 182 183 184 185 186 188 189 189 189 191 191 188 188 191 192 190 188 187 190 193 193 192 193 194 196 196 197 198 199 199 200 201 201 201 200 200 201 202 202 201 200 198
275 206 129 122 122 142 213 257 280 248 236 244 179 189 218 241 244 252 265 272 272 269 255 186 191 193 138 125 106 25 269 247 226 203 193 173 168 174 177 189 200 190 186 189 187 185 187 187 187 190 193 192 192 192 189 188 190 191 189 187 186 188 191 192 191 191 192 193 194 195 195 196 196 196 197 197 197 197 197 197 198 198 197 195 195 196
272 243 148 133 151 155 171 206 231 249 295 327 314 162 191 278 251 240 260 290 313 353 61 75 77 79 93 93 75 53 21 325 295 246 235 213 188 170 166 187 203 193 186 192 195 196 194 190 188 188 192 195 195 192 189 189 190 187 184 186 187 188 191 192 190 190 190 191 193 193 192 192 192 191 192 192 192 193 193 193 192 191 190 188 188 191
299 288 196 154 172 180 179 209 255 286 297 281 271 19 68 102 136 148 146 4 16 56 90 91 62 43 46 56 55 55 51 31 3 331 324 316 263 232 208 192 196 208 206 195 198 204 200 195 196 194 192 192 192 192 192 191 189 185 183 185 186 188 190 190 190 190 190 191 191 190 189 188 187 186 186 186 187 188 187 187 186 185 185 183 182 184
299 288 215 202 186 178 181 193 245 260 252 235 238 327 118 122 115 113 110 75 16 17 66 90 73 56 46 34 30 45 56 45 360 313 335 352 342 309 283 258 235 230 228 206 194 197 195 192 197 202 198 193 192 194 194 191 186 183 184 185 186 187 188 190 192 190 189 189 189 187 185 185 183 182 181 182 183 183 181 180 180 181 182 180 179 182
290 301 242 224 182 169 190 200 216 230 222 202 204 194 104 104 104 96 83 70 316 338 35 77 74 63 55 28 15 45 64 47 336 303 330 346 346 341 333 319 302 282 263 230 196 190 195 195 196 200 200 197 197 197 195 189 186 184 184 187 187 186 188 192 192 190 187 186 184 182 181 181 180 178 176 177 178 177 174 173 175 177 178 179 181 182
282 9 51 261 190 141 164 207 235 236 202 197 193 157 128 97 91 98 150 228 259 346 34 64 66 60 59 43 29 48 64 43 317 309 333 342 336 331 332 322 309 302 295 273 233 210 203 198 197 198 198 198 199 198 193 189 187 187 187 187 186 186 190 193 192 188 185 181 177 176 176 175 175 173 172 172 173 171 170 170 171 172 174 177 179 176
324 23 79 266 258 135 137 204 251 236 194 194 196 154 135 110 85 110 198 214 130 50 50 61 66 59 54 58 58 52 33 3 340 333 347 358 354 341 331 320 299 283 294 309 309 276 218 203 202 202 199 199 199 197 192 188 188 191 190 186 185 189 191 190 187 182 177 173 170 170 171 171 170 169 169 169 167 165 166 169 169 169 170 171 170 166
351 354 1 313 295 157 147 184 283 305 302 193 114 43 58 109 136 183 189 159 86 77 68 58 59 54 49 59 65 57 33 18 15 9 4 8 9 357 347 348 351 340 337 26 17 1 328 228 209 203 201 200 198 194 191 189 189 190 188 184 188 192 188 181 177 173 170 167 165 164 165 166 166 165 164 164 163 161 161 164 165 165 166 166 164 163
339 336 337 319 310 226 147 139 121 266 286 261 143 80 10 92 190 183 127 94 77 75 73 62 54 45 44 53 50 41 38 33 27 20 11 9 11 3 355 357 355 345 344 10 29 22 10 341 245 211 200 197 197 194 190 187 187 185 184 185 187 185 179 171 168 167 165 162 160 160 160 161 161 161 160 160 160 158 156 158 160 162 164 165 164 164
343 353 343 334 349 14 10 7 353 279 286 359 109 135 100 114 167 139 101 89 73 66 69 67 54 40 42 54 51 38 31 28 21 17 14 12 11 5 0 2 360 352 350 358 13 24 26 15 345 310 222 190 184 189 188 183 181 180 179 180 176 171 166 164 162 160 158 157 155 155 155 155 157 158 158 158 158 156 154 155 157 159 163 164 162 160
2 31 321 288 336 351 245 298 312 302 301 86 93 121 113 91 80 87 89 84 72 65 66 68 58 47 46 54 56 46 32 21 14 14 12 12 14 11 6 8 4 355 353 354 5 24 36 38 19 354 327 237 173 175 186 182 177 176 171 167 163 159 158 157 155 153 152 151 149 148 148 149 151 153 154 155 157 155 153 153 153 153 157 160 158 156
342 24 296 249 341 352 309 302 307 303 316 91 90 87 90 82 71 74 79 79 75 70 69 70 67 60 56 58 61 53 36 24 22 19 13 10 14 15 13 16 12 4 6 2 354 11 38 51 42 9 332 311 163 151 172 178 174 169 161 157 155 153 152 151 149 146 144 141 141 142 142 142 144 146 148 149 151 151 150 150 149 148 151 155 156 158
2 22 8 318 357 1 337 319 305 307 344 53 65 63 68 74 75 71 71 76 79 75 71 69 69 67 63 60 59 54 41 34 30 27 23 18 17 17 16 17 15 10 16 13 354 353 30 59 58 38 353 339 358 50 92 111 139 149 148 148 147 146 146 144 140 137 135 133 134 137 138 138 138 138 139 140 142 144 146 149 150 149 151 155 159 165
4 14 1 335 347 1 299 292 287 297 10 45 51 55 61 71 77 75 73 76 75 72 68 63 59 61 59 55 54 54 47 39 32 29 29 23 18 20 18 18 19 16 22 23 8 356 8 68 80 79 67 9 359 30 76 78 60 100 135 141 142 140 138 136 133 131 129 128 129 132 134 134 133 132 132 134 137 140 143 150 155 156 159 166 171 176
343 349 343 326 323 311 282 284 284 295 21 40 40 43 50 61 73 75 74 73 71 70 66 62 57 56 53 47 44 48 48 42 35 32 31 26 19 19 19 18 24 26 25 25 17 3 359 36 78 83 97 98 63 63 96 98 88 81 100 122 133 133 130 128 129 127 124 123 125 126 128 130 131 131 130 131 134 138 143 152 160 163 167 173 179 184
287 313 336 305 288 269 245 276 293 305 3 27 27 33 42 57 70 72 70 67 68 69 71 70 65 59 55 49 43 46 48 42 32 30 34 29 18 16 21 19 19 33 37 32 27 15 4 8 41 59 80 100 98 85 88 94 94 92 88 91 108 116 117 118 119 119 119 122 126 127 127 127 129 131 133 134 135 137 138 147 160 169 173 176 182 186
179 225 121 261 270 250 195 251 292 309 349 10 18 27 35 49 66 71 68 67 68 67 68 72 68 60 56 51 45 47 50 42 32 31 34 32 23 19 24 23 14 24 43 43 35 17 358 355 8 19 26 62 79 73 70 83 95 102 103 100 106 113 118 120 119 118 120 126 130 129 128 128 130 133 135 137 138 136 131 131 139 151 159 168 176 181
Height
721 738 743 741 740 735 730 729 731 731 730 732 733 733 731 732 729 714 707 697 694 718 729 724 731 733 731 729 726 725 725 730 737 739 741 744 747 749 750 753 754 755 754 752 755 756 758 760 763 766 769 772 774 777 779 782 784 787 789 791 793 795 798 800 803 806 808 810 812 814 816 817 819 821 822 823 824 826 826 827 828 829 829 831 831 833
722 741 740 730 729 725 723 723 724 727 727 729 731 733 730 729 724 707 702 697 690 713 727 719 727 731 726 726 723 723 728 732 734 737 740 740 743 745 746 749 751 751 750 751 754 754 756 759 761 764 767 770 772 773 776 778 781 785 787 789 790 793 795 797 800 803 805 807 809 811 813 815 817 819 820 821 823 824 825 825 826 827 828 829 830 832
733 738 730 721 719 719 720 718 721 725 726 729 729 733 735 727 721 709 697 694 693 711 725 720 727 731 723 721 720 721 726 728 726 729 734 735 740 742 743 745 747 749 750 750 751 752 754 755 758 761 763 766 769 771 774 776 779 782 784 786 788 790 792 794 797 799 802 805 807 809 811 813 816 817 819 820 821 823 824 824 825 826 827 828 830 831
739 731 720 714 713 717 721 718 720 724 725 729 729 734 736 723 725 726 706 695 694 703 716 720 727 729 722 721 721 718 720 722 721 722 724 728 733 737 736 738 742 746 748 749 749 749 750 752 754 757 759 762 765 768 771 773 775 778 780 783 785 788 790 792 795 797 800 803 806 808 810 812 814 816 817 819 820 821 822 822 823 824 826 827 828 829
729 717 708 710 712 715 722 720 720 728 730 728 724 728 730 719 720 722 708 697 696 700 703 716 737 737 726 730 730 720 718 720 720 720 723 723 725 729 731 732 735 738 742 744 746 745 746 748 749 752 755 758 761 764 766 768 771 773 776 779 783 786 788 790 793 795 799 802 805 807 810 812 813 814 815 817 818 819 820 821 821 823 824 825 826 827
719 705 700 709 713 712 719 721 718 724 731 729 719 716 717 714 712 710 705 703 716 725 708 713 754 756 730 731 734 724 724 725 721 721 724 723 722 725 729 731 731 732 734 737 739 740 741 743 746 748 751 753 756 759 761 764 767 771 774 777 780 783 786 789 791 793 797 799 802 804 806 808 809 810 811 812 814 816 817 818 819 821 822 823 825 826
708 700 697 705 710 711 716 718 712 713 729 732 714 704 706 709 709 709 707 712 728 736 711 706 747 762 740 733 730 724 728 727 723 723 723 721 721 722 725 727 727 728 730 732 734 735 737 739 741 744 746 748 751 754 758 762 765 769 772 775 778 781 784 786 789 791 794 796 799 801 802 803 805 806 808 810 812 814 815 816 817 819 820 821 823 824
699 699 700 700 704 710 714 716 707 703 723 727 703 696 704 706 709 709 708 715 719 718 713 705 722 749 750 735 722 720 728 729 725 724 722 719 719 718 719 721 722 723 725 728 731 732 733 734 736 739 742 744 747 751 754 758 761 765 768 771 774 778 781 784 786 788 791 793 795 798 799 801 802 804 805 808 810 812 814 814 815 817 818 819 821 822
690 698 700 698 703 707 706 704 697 697 713 711 693 692 698 699 704 703 706 715 709 715 732 719 714 744 754 729 714 716 726 732 728 723 719 717 716 714 714 715 716 717 718 721 724 727 728 729 732 735 738 742 746 749 752 754 757 760 764 768 772 775 778 781 784 786 788 790 792 795 797 798 800 802 804 806 808 810 811 812 813 815 816 818 819 821
686 686 684 689 699 700 694 689 686 693 702 695 687 690 692 693 697 699 706 713 712 725 742 726 716 743 753 730 718 722 726 728 724 717 714 712 710 710 709 710 711 712 714 715 717 719 721 723 727 730 734 739 742 745 749 752 755 758 761 765 768 771 775 778 781 783 785 787 790 792 794 796 798 800 802 805 806 808 809 810 811 812 814 816 817 819
679 671 670 677 684 683 681 680 678 684 688 685 689 696 699 699 697 700 703 707 725 739 734 719 710 727 745 734 718 717 713 711 713 713 710 707 706 706 705 705 707 708 710 711 712 713 715 718 722 727 730 734 737 741 745 749 752 755 757 760 764 767 771 774 777 780 782 784 786 788 790 792 794 797 799 802 804 805 807 808 809 810 812 813 815 817
681 679 676 669 666 668 675 678 675 674 678 685 694 703 714 716 709 713 713 715 741 748 725 709 702 713 738 732 710 702 695 691 699 705 705 704 703 702 700 700 700 703 705 706 709 710 712 716 719 722 726 729 733 737 740 744 748 751 754 757 760 764 767 771 774 776 779 781 783 785 787 789 791 793 796 798 800 802 803 805 806 807 809 811 813 815
688 683 676 669 662 661 675 685 683 679 680 689 699 709 727 736 734 738 737 733 743 737 712 700 702 713 722 710 697 693 686 682 685 688 691 693 694 694 694 695 694 697 700 701 704 707 709 713 715 716 721 724 728 731 734 739 743 747 750 753 756 759 763 767 770 773 775 777 779 781 783 786 788 790 793 795 797 799 800 802 803 804 806 808 810 812
699 686 673 676 671 658 668 687 696 694 690 695 701 712 731 742 752 759 749 740 740 727 705 693 702 715 712 694 684 682 676 671 670 672 677 680 683 686 686 688 690 691 694 697 699 702 704 706 708 710 714 718 722 725 730 734 738 742 746 749 752 755 759 763 766 769 772 774 776 778 780 782 785 787 789 792 794 796 797 799 800 801 802 804 807 809
712 705 681 677 674 661 662 673 683 686 687 690 686 697 717 724 738 751 745 741 739 725 709 700 706 716 711 690 672 666 663 660 661 663 666 670 673 677 680 682 685 688 689 692 694 696 698 699 701 704 708 712 716 720 724 729 733 737 740 744 748 751 755 759 763 766 768 771 773 775 777 779 781 784 786 789 791 792 794 796 797 799 800 802 804 806
705 703 673 662 660 657 662 661 661 675 689 684 675 690 706 701 708 723 724 721 722 724 718 709 705 696 685 671 655 655 659 656 658 660 662 668 669 671 678 680 682 685 686 688 690 692 693 693 696 699 703 707 711 716 720 723 727 730 735 739 743 747 751 755 759 762 765 767 770 772 774 776 778 781 783 786 788 790 791 793 794 796 798 799 801 804
698 694 664 656 658 652 657 656 653 670 686 683 683 692 686 675 687 711 719 708 712 732 725 706 702 689 678 673 657 653 661 660 661 662 662 666 667 670 677 677 678 681 682 683 685 687 689 690 693 695 699 703 707 711 714 717 721 725 729 734 739 743 748 751 755 758 761 764 766 768 770 772 775 777 780 782 785 787 788 790 792 794 795 797 799 802
685 690 664 655 665 653 643 650 650 651 664 680 690 684 672 674 683 699 721 722 725 742 727 704 706 700 697 696 670 657 665 666 664 664 664 665 666 671 674 673 675 675 676 679 679 682 684 686 689 691 695 698 701 705 709 713 718 722 726 730 734 739 743 747 751 754 757 760 762 765 767 769 771 773 776 779 782 784 786 787 789 791 793 795 797 799
671 690 672 649 658 653 638 652 664 652 648 665 675 667 674 700 705 703 719 730 735 744 730 711 706 699 698 695 676 666 669 667 663 661 663 665 664 666 669 670 671 671 673 676 676 678 680 681 684 686 690 694 697 701 705 711 716 720 724 727 730 734 738 742 747 750 754 757 759 762 764 766 768 770 773 776 779 781 782 784 786 788 790 792 795 797
662 686 684 652 642 648 647 658 675 672 658 658 665 665 672 689 699 701 705 712 724 737 733 722 712 700 686 673 667 666 661 660 661 658 659 661 658 658 663 665 667 669 670 672 673 674 674 676 678 680 684 688 692 698 703 708 713 717 721 724 727 731 735 740 744 747 751 753 756 759 761 763 765 767 770 773 775 777 779 781 784 785 787 790 792 794
659 676 685 662 641 649 659 658 665 672 670 671 678 681 680 679 682 689 692 692 704 724 730 728 722 702 671 653 654 657 652 651 653 653 653 653 650 651 654 657 661 663 665 665 666 668 670 672 674 676 680 683 688 694 699 704 709 713 717 721 724 728 732 736 739 743 747 750 753 755 757 760 762 764 767 769 772 774 776 778 780 782 785 787 789 790
660 670 679 673 660 658 656 642 641 652 657 666 675 677 679 682 687 699 704 690 687 702 711 717 722 698 659 643 644 644 644 643 642 646 648 646 646 647 647 649 651 654 657 658 659 661 664 667 670 674 678 681 685 689 694 698 703 708 712 716 721 724 728 731 735 739 743 746 749 751 753 757 759 761 763 766 768 770 772 775 777 780 782 784 785 787
646 660 672 675 664 654 642 628 628 636 640 650 661 663 669 676 684 702 711 696 686 691 691 698 712 692 652 638 639 636 635 635 635 639 643 643 642 643 644 644 644 646 648 650 652 655 659 663 666 671 676 679 681 682 686 692 697 701 706 711 716 720 723 727 731 735 740 743 745 747 750 754 756 758 760 762 765 766 769 772 774 777 779 780 782 783
639 656 670 674 662 647 635 625 622 624 633 649 655 653 662 669 672 681 688 684 687 693 692 702 713 691 651 635 636 634 630 629 630 630 633 637 637 637 641 642 643 645 645 648 651 654 657 661 664 669 674 677 678 680 682 685 690 695 701 705 710 714 719 724 728 733 736 739 742 745 748 750 752 754 756 758 760 762 765 768 771 773 775 776 778 780
640 654 665 678 682 673 662 653 645 636 637 648 652 649 654 658 662 670 672 677 688 689 687 702 711 686 651 637 635 634 632 631 630 628 628 633 634 634 636 638 641 644 646 648 651 653 656 660 663 667 669 671 674 677 679 681 686 690 694 699 704 709 715 720 725 729 732 736 739 742 744 746 748 750 752 754 756 759 761 764 767 769 771 772 774 776
633 646 654 673 690 691 684 674 663 651 644 644 645 646 649 651 658 668 674 685 694 686 677 689 694 674 651 643 640 636 636 636 633 630 629 629 631 632 632 636 640 642 646 647 649 652 655 658 661 663 665 667 670 674 677 680 683 687 691 695 699 705 710 715 720 725 728 732 735 738 740 741 743 745 747 750 752 755 758 760 763 765 766 768 770 772
625 635 638 651 664 668 666 656 643 640 646 648 646 645 646 648 650 659 673 684 685 683 681 677 672 667 658 651 646 638 635 637 635 632 631 629 629 629 631 636 638 639 643 644 645 650 653 655 658 660 662 664 666 670 674 677 680 684 688 692 696 701 706 711 716 720 724 728 731 734 735 737 738 740 742 745 748 751 754 756 758 760 762 764 767 769
624 634 632 636 643 643 642 638 630 632 640 643 643 644 645 645 647 656 668 669 667 681 689 672 660 667 662 649 646 641 635 636 635 631 630 629 628 627 629 634 636 637 640 641 644 648 651 654 656 657 659 661 664 668 671 674 677 680 684 688 692 697 701 706 711 715 720 723 726 729 730 732 734 736 739 742 745 748 750 752 754 756 758 761 763 765
621 632 627 630 636 635 632 631 628 629 633 632 634 639 641 643 647 652 657 655 657 673 679 664 660 666 656 644 642 639 634 634 633 628 626 626 626 627 630 636 638 638 640 642 645 648 650 652 654 655 657 657 660 665 667 671 675 677 681 685 688 692 696 701 706 710 715 718 720 723 725 728 730 732 736 739 741 744 746 747 750 752 754 757 758 761
614 627 622 624 633 633 630 631 629 629 632 631 629 629 632 636 640 644 647 647 650 658 658 654 658 657 646 638 634 628 627 627 626 625 625 625 626 627 631 636 639 639 640 642 643 644 646 648 649 652 654 655 658 660 664 667 670 673 677 680 683 687 691 696 701 705 709 712 715 718 721 724 727 729 732 734 737 739 741 743 746 749 751 753 755 757
606 624 619 619 634 635 627 627 629 630 634 634 631 626 626 630 635 639 643 643 647 653 650 649 656 653 639 630 625 622 622 624 626 627 627 627 628 629 632 634 637 639 640 640 641 642 644 646 648 650 651 653 653 655 659 662 665 669 672 675 679 683 686 691 695 699 703 706 709 713 717 720 723 725 727 730 732 734 737 740 743 745 748 749 751 754
608 619 617 621 642 644 629 629 631 629 633 638 634 629 627 629 633 634 635 637 642 649 650 652 657 652 636 626 625 622 620 624 629 630 628 627 628 632 635 634 634 636 638 638 639 640 642 643 645 646 647 648 648 651 654 657 661 665 667 670 673 677 682 687 689 693 697 701 705 709 711 714 717 720 723 725 728 731 734 737 740 742 745 746 747 750
615 616 618 628 648 647 634 632 629 632 647 648 631 624 627 627 628 629 629 627 628 634 646 653 649 639 628 625 627 626 621 622 625 626 627 626 625 628 631 632 632 631 631 632 634 635 637 637 637 638 639 640 643 645 648 651 656 659 661 664 668 673 678 681 684 688 692 696 700 703 706 710 712 715 719 721 725 728 731 734 737 738 740 742 744 747
621 616 618 626 643 649 639 631 633 649 663 647 617 611 618 620 624 631 630 626 623 623 629 632 629 624 623 625 628 628 623 618 616 617 619 621 622 624 624 625 628 627 626 627 627 629 631 631 632 632 633 634 636 638 642 646 649 652 655 659 664 668 672 676 679 683 686 690 694 697 701 705 707 711 715 718 722 725 728 731 733 735 737 739 741 744
628 620 619 624 636 645 638 639 661 674 656 624 604 603 606 608 613 622 624 620 619 619 620 623 624 623 623 624 624 625 623 617 612 611 610 612 616 619 620 621 621 623 626 626 625 625 626 626 627 629 629 631 632 633 638 641 644 648 652 656 660 663 666 669 673 677 681 684 688 692 696 700 703 708 712 715 719 722 724 727 729 732 734 736 739 742
630 622 619 623 634 643 646 656 672 664 633 612 607 603 603 608 613 620 629 626 619 620 625 629 629 624 622 622 619 618 619 616 614 612 609 608 609 612 617 619 617 618 621 622 623 622 620 619 621 622 624 627 629 632 635 637 640 645 648 652 655 658 661 665 668 671 675 679 682 686 691 695 699 704 708 712 716 718 721 723 726 729 732 735 738 740
626 624 621 626 634 641 652 660 655 646 636 628 619 608 607 615 618 623 638 640 627 622 625 627 629 627 625 623 619 614 613 617 622 620 612 608 608 607 609 611 612 613 614 615 616 616 615 615 616 617 620 622 626 630 631 633 637 641 644 647 651 654 658 660 663 665 669 672 677 681 686 690 695 700 704 708 712 715 718 720 724 727 730 732 735 737
619 622 622 630 635 636 648 660 659 661 658 639 621 609 603 608 611 614 633 645 636 625 624 626 629 630 627 625 622 616 616 627 637 631 617 612 610 608 606 605 604 606 608 609 611 611 612 614 615 617 619 620 622 625 627 630 633 636 640 643 645 649 653 655 658 660 663 667 672 676 682 687 691 696 700 705 708 712 715 718 722 725 727 730 732 734
617 620 621 629 636 636 647 660 663 663 653 630 616 609 603 605 605 611 638 656 643 626 624 626 630 631 629 629 625 621 628 643 649 638 623 616 613 611 611 608 603 602 602 602 605 607 608 609 610 613 616 618 619 621 623 626 629 631 635 637 640 644 647 650 653 655 658 662 667 673 678 683 688 692 697 702 706 710 713 716 719 722 725 727 729 732
623 625 630 637 640 638 646 656 653 645 635 620 611 609 605 601 603 627 662 667 641 626 626 627 631 633 631 631 630 631 641 650 648 636 623 617 615 613 613 611 607 605 604 601 601 602 603 603 605 607 610 612 614 616 619 623 625 627 628 630 634 637 639 643 647 651 655 660 664 670 675 679 685 689 694 699 703 707 710 713 716 720 723 725 727 730
639 633 636 641 641 640 648 656 650 638 624 612 608 606 601 603 619 650 668 653 632 629 629 627 631 634 631 633 636 638 640 638 633 627 621 618 619 616 613 610 607 605 605 603 600 599 599 600 600 601 602 605 608 611 615 617 620 622 623 625 628 630 632 637 643 649 654 658 662 667 672 677 682 687 691 696 700 704 708 711 714 718 721 723 726 728
666 657 650 645 640 638 643 652 656 646 622 606 606 604 601 619 645 654 644 631 628 631 630 628 631 632 631 633 635 636 635 630 628 628 626 625 625 622 619 615 611 606 603 600 598 597 597 597 597 597 597 599 602 606 610 612 614 616 619 621 623 626 629 634 641 647 652 655 660 665 670 675 680 684 690 694 698 702 706 709 713 716 719 722 724 726
676 675 671 659 644 639 642 650 663 659 627 604 609 617 619 632 643 636 627 627 629 628 629 632 633 631 632 634 634 635 635 633 634 634 633 631 628 626 624 622 619 614 607 601 598 597 596 597 598 596 593 594 598 601 603 606 609 612 615 617 620 624 630 634 639 645 650 654 659 664 669 674 679 684 689 693 696 700 704 707 711 714 717 720 723 725
675 679 686 678 664 662 663 658 655 647 622 605 614 628 630 628 624 622 625 630 629 628 631 635 635 633 633 634 636 637 637 638 639 638 636 635 631 629 628 625 623 620 614 609 606 601 598 602 604 603 598 594 596 600 603 605 609 612 615 617 620 625 630 634 639 645 650 654 658 663 669 674 680 684 688 692 696 699 702 706 710 714 717 720 723 726
679 680 686 684 676 676 675 666 654 639 620 611 616 621 622 619 617 619 624 629 632 633 633 636 639 638 636 637 640 641 641 642 642 640 639 637 634 632 631 629 627 624 620 618 614 607 604 605 609 615 616 608 600 601 605 607 610 613 615 617 620 624 629 634 639 644 649 654 658 663 669 675 680 685 689 692 695 698 702 706 710 714 718 721 724 727
674 672 676 676 673 671 666 662 661 650 627 615 616 617 617 618 619 620 625 630 634 635 634 637 641 640 640 641 642 644 646 645 643 642 640 638 635 634 632 630 629 626 623 621 619 615 610 607 609 622 633 626 610 604 606 609 611 613 615 616 619 623 628 634 639 644 650 654 659 664 670 676 682 687 690 693 696 699 703 707 711 715 719 721 724 727
671 671 674 674 675 678 672 664 666 660 637 622 622 620 617 620 622 624 629 632 634 635 636 638 640 640 641 642 644 647 648 645 644 643 640 638 637 636 634 633 632 630 626 624 622 620 615 609 610 622 635 635 623 612 611 614 617 617 616 616 617 622 628 633 638 644 649 654 659 665 670 676 682 686 690 694 697 701 705 708 712 716 719 722 724 726
676 674 677 676 676 680 677 669 668 662 641 627 628 628 625 627 627 627 631 634 634 636 638 639 641 642 642 643 645 647 647 645 645 644 641 640 639 638 637 637 635 633 630 627 625 625 621 614 613 620 628 634 634 627 621 622 627 629 626 622 620 621 627 633 638 644 649 654 661 667 671 677 682 686 690 694 698 701 705 708 712 715 718 721 723 725
679 680 681 681 681 680 676 671 670 664 647 635 635 636 634 633 631 632 635 636 637 640 643 644 645 645 645 646 647 646 647 648 647 645 644 642 641 640 640 640 638 635 633 631 630 630 629 624 621 621 622 627 634 636 628 623 627 632 633 630 627 625 628 634 639 644 650 656 663 669 674 678 683 686 690 694 697 701 705 708 711 714 716 718 721 723
682 685 684 686 689 685 678 673 672 670 662 652 646 643 641 639 637 638 640 640 642 645 647 648 649 648 648 649 649 649 651 652 650 648 647 645 643 643 642 641 640 637 634 633 634 635 636 635 632 630 627 625 630 636 633 624 623 628 635 638 637 634 636 641 645 648 653 660 667 672 675 679 684 687 690 694 697 700 705 708 712 714 715 717 720 721
682 684 684 689 689 680 674 673 671 669 667 661 653 649 646 643 642 643 645 646 647 649 649 651 652 652 652 652 652 653 654 655 653 652 649 648 647 645 643 644 644 641 637 636 636 638 640 640 639 638 636 632 632 636 635 629 626 631 639 644 647 647 648 651 653 656 659 665 671 674 677 680 685 688 691 695 697 700 704 708 712 715 717 719 720 722